TimeCDT,TemperatureF,Dew PointF,Humidity,Sea Level PressureIn,VisibilityMPH,Wind Direction,Wind SpeedMPH,Gust SpeedMPH,PrecipitationIn,Events,Conditions,WindDirDegrees,DateUTC
12:53 AM,71.1,64.0,78,29.97,10.0,NNW,6.9,-,N/A,,Overcast,330,2013-07-02 05:53:00
1:53 AM,68.0,66.0,93,29.96,9.0,Calm,Calm,-,0.02,,Mostly Cloudy,0,2013-07-02 06:53:00
2:53 AM,66.9,64.9,93,29.97,9.0,Calm,Calm,-,0.01,,Mostly Cloudy,0,2013-07-02 07:53:00
3:53 AM,64.0,64.0,100,29.97,6.0,Calm,Calm,-,N/A,,Clear,0,2013-07-02 08:53:00
4:53 AM,63.0,62.1,97,29.99,6.0,NW,3.5,-,N/A,,Clear,320,2013-07-02 09:53:00
5:53 AM,62.1,61.0,96,30.01,9.0,NNW,4.6,-,N/A,,Clear,340,2013-07-02 10:53:00
6:53 AM,64.0,63.0,96,30.02,9.0,Calm,Calm,-,N/A,,Partly Cloudy,0,2013-07-02 11:53:00
7:53 AM,69.1,63.0,81,30.02,10.0,NNW,3.5,-,N/A,,Partly Cloudy,340,2013-07-02 12:53:00
9:53 AM,77.0,63.0,62,30.04,10.0,West,3.5,-,N/A,,Clear,280,2013-07-02 14:53:00
10:53 AM,80.1,61.0,52,30.04,10.0,NNW,3.5,-,N/A,,Clear,330,2013-07-02 15:53:00
11:53 AM,81.0,59.0,47,30.03,10.0,NW,8.1,-,N/A,,Partly Cloudy,310,2013-07-02 16:53:00
12:53 PM,82.0,59.0,45,30.03,10.0,North,5.8,-,N/A,,Mostly Cloudy,350,2013-07-02 17:53:00
1:53 PM,84.9,57.9,40,30.01,10.0,NE,5.8,-,N/A,,Partly Cloudy,40,2013-07-02 18:53:00
2:53 PM,84.9,57.0,38,30.00,10.0,North,9.2,-,N/A,,Scattered Clouds,360,2013-07-02 19:53:00
3:53 PM,87.1,57.0,36,29.99,10.0,NNW,8.1,-,0.00,,Clear,330,2013-07-02 20:53:00
4:53 PM,86.0,55.0,35,29.99,10.0,NW,8.1,-,N/A,,Clear,310,2013-07-02 21:53:00
5:53 PM,84.9,54.0,34,29.98,10.0,North,4.6,-,N/A,,Clear,350,2013-07-02 22:53:00
6:53 PM,84.9,55.9,37,29.98,10.0,North,3.5,-,N/A,,Clear,10,2013-07-02 23:53:00
7:53 PM,79.0,62.1,56,30.00,10.0,Calm,Calm,-,N/A,,Clear,0,2013-07-03 00:53:00
8:53 PM,70.0,63.0,78,30.00,10.0,Calm,Calm,-,N/A,,Clear,0,2013-07-03 01:53:00
9:53 PM,68.0,63.0,84,30.01,10.0,Calm,Calm,-,N/A,,Clear,0,2013-07-03 02:53:00
10:53 PM,66.9,63.0,87,30.03,10.0,Calm,Calm,-,N/A,,Clear,0,2013-07-03 03:53:00
11:53 PM,64.9,63.0,93,30.04,10.0,Calm,Calm,-,N/A,,Clear,0,2013-07-03 04:53:00